TimeCST,TemperatureF,Dew PointF,Humidity,Sea Level PressureIn,VisibilityMPH,Wind Direction,Wind SpeedMPH,Gust SpeedMPH,PrecipitationIn,Events,Conditions,WindDirDegrees,DateUTC
12:54 AM,46.0,28.9,51,30.05,10.0,Calm,Calm,-,N/A,,Clear,0,2012-11-26 06:54:00
1:54 AM,46.9,30.0,52,30.04,10.0,South,5.8,-,N/A,,Clear,170,2012-11-26 07:54:00
2:54 AM,46.9,30.9,54,30.04,10.0,South,6.9,-,N/A,,Clear,170,2012-11-26 08:54:00
3:54 AM,48.0,30.9,52,30.05,10.0,South,6.9,-,N/A,,Partly Cloudy,170,2012-11-26 09:54:00
4:54 AM,50.0,33.1,52,30.05,10.0,South,9.2,-,N/A,,Overcast,180,2012-11-26 10:54:00
5:51 AM,51.8,35.6,54,30.06,10.0,South,8.1,-,N/A,,Overcast,170,2012-11-26 11:51:00
5:54 AM,51.1,36.0,56,30.06,10.0,South,8.1,-,N/A,,Overcast,170,2012-11-26 11:54:00
6:09 AM,51.8,35.6,54,30.06,10.0,South,5.8,-,N/A,,Overcast,170,2012-11-26 12:09:00
6:28 AM,51.8,35.6,54,30.06,10.0,South,8.1,-,N/A,,Overcast,170,2012-11-26 12:28:00
6:54 AM,51.1,37.0,59,30.06,10.0,SSE,6.9,-,0.00,Rain,Light Rain,160,2012-11-26 12:54:00
7:54 AM,51.1,41.0,68,30.07,4.0,Calm,Calm,-,0.00,Rain,Rain,0,2012-11-26 13:54:00
7:57 AM,50.0,41.0,71,30.07,0.5,Calm,Calm,-,0.01,Rain,Heavy Rain,0,2012-11-26 13:57:00
8:04 AM,48.2,42.8,82,30.08,5.0,NNW,3.5,-,0.23,Rain,Light Rain,330,2012-11-26 14:04:00
8:54 AM,48.9,45.0,86,30.09,10.0,SE,3.5,-,0.39,,Overcast,140,2012-11-26 14:54:00
9:54 AM,51.1,46.9,86,30.10,9.0,ESE,4.6,-,0.03,Rain,Light Rain,110,2012-11-26 15:54:00
10:54 AM,52.0,48.0,86,30.09,10.0,SE,3.5,-,0.01,Rain,Light Rain,130,2012-11-26 16:54:00
11:54 AM,53.1,48.9,86,30.06,10.0,SE,4.6,-,0.00,,Overcast,130,2012-11-26 17:54:00
12:54 PM,54.0,50.0,86,30.04,10.0,SE,4.6,-,0.01,,Overcast,140,2012-11-26 18:54:00
1:01 PM,55.4,51.8,88,30.04,10.0,SE,4.6,-,N/A,,Overcast,130,2012-11-26 19:01:00
1:54 PM,55.0,51.1,86,30.04,8.0,ESE,5.8,-,N/A,,Overcast,120,2012-11-26 19:54:00
2:27 PM,55.4,51.8,88,30.04,10.0,Calm,Calm,-,0.01,Rain,Light Rain,0,2012-11-26 20:27:00
2:54 PM,55.9,53.1,90,30.04,7.0,East,3.5,-,0.01,Rain,Light Rain,80,2012-11-26 20:54:00
3:54 PM,55.9,53.1,90,30.03,10.0,East,4.6,-,0.00,,Overcast,80,2012-11-26 21:54:00
4:54 PM,55.0,53.1,93,30.04,10.0,NNE,4.6,-,N/A,,Overcast,30,2012-11-26 22:54:00
5:39 PM,55.4,53.6,94,30.06,5.0,North,6.9,-,N/A,,Overcast,360,2012-11-26 23:39:00
5:54 PM,54.0,52.0,93,30.07,3.0,North,4.6,-,N/A,,Overcast,350,2012-11-26 23:54:00
6:09 PM,53.6,51.8,94,30.07,3.0,North,9.2,-,0.00,Rain,Light Rain,10,2012-11-27 00:09:00
6:19 PM,53.6,51.8,94,30.08,2.0,NNE,8.1,-,0.00,Rain,Light Rain,20,2012-11-27 00:19:00
6:33 PM,53.6,51.8,94,30.09,1.0,North,8.1,-,0.00,,Overcast,350,2012-11-27 00:33:00
6:54 PM,53.1,51.1,93,30.10,1.0,North,9.2,-,0.01,Rain,Light Rain,10,2012-11-27 00:54:00
7:51 PM,51.8,50.0,94,30.12,2.0,North,10.4,-,0.01,Rain,Light Rain,360,2012-11-27 01:51:00
7:54 PM,51.1,48.9,92,30.12,2.0,NNW,11.5,-,0.01,Rain,Light Rain,340,2012-11-27 01:54:00
8:04 PM,50.0,48.2,94,30.13,1.0,North,13.8,18.4,0.00,Rain,Light Rain,360,2012-11-27 02:04:00
8:54 PM,48.0,46.0,93,30.16,1.0,North,11.5,-,0.00,Rain,Light Rain,10,2012-11-27 02:54:00
9:44 PM,46.4,44.6,93,30.18,3.0,North,16.1,23.0,0.00,Rain,Light Rain,10,2012-11-27 03:44:00
9:54 PM,46.9,44.1,90,30.18,3.0,North,15.0,-,0.00,Rain,Light Rain,10,2012-11-27 03:54:00
10:40 PM,46.4,42.8,87,30.18,10.0,NNE,12.7,24.2,0.00,,Overcast,30,2012-11-27 04:40:00
10:54 PM,45.0,42.1,90,30.19,7.0,North,17.3,-,0.00,,Overcast,360,2012-11-27 04:54:00
11:54 PM,43.0,39.9,89,30.21,7.0,North,12.7,-,0.00,,Overcast,360,2012-11-27 05:54:00